Location: Burgerwiesen
(48.6500°N, 15.6167°E)
Time: 15:46:10
(UTC+00:00)

Cosmos 2100 Rocket - Pass Details

Date: 09 April 2020
Orbit: 957 x 1000 km, 82.9° (Epoch: 02 June)

Event Time Altitude Azimuth Distance (km) Brightness Sun altitude
Rises 22:12:42 0° 350° (N) 3,671 8.1 -32.4°
Reaches altitude 10° 22:15:12 10° 351° (N) 2,725 7.2 -32.5°
Enters shadow 22:20:34 68° 354° (N) 1,052 4.2 -32.7°
